FW6799 Weather Reports


Display with metric or nautical units.
time (UTC)temp
F
wind
direction
speed
MPH
gust
MPH
rain 1hr
in
rain 24hr
in
rain mn
in
humidity
%
barometer
mb
20260509000201 64 96 9.0 18.0 0.00 0.00 0.00 34 1021.4
20260508190055 62 106 7.0 12.0 0.00 0.00 0.00 36 1019.7
20260508184713 62 63 8.0 13.0 0.00 0.00 0.00 36 1019.8
20260508183138 62 93 8.0 13.0 0.00 0.00 0.00 36 1019.8
20260508181850 63 85 11.0 15.0 0.00 0.00 0.00 35 1019.8
20260508180324 63 99 9.0 15.0 0.00 0.00 0.00 35 1019.8
20260508173407 64 95 10.0 14.0 0.00 0.00 0.00 34 1020.1
20260508171601 64 113 9.0 13.0 0.00 0.00 0.00 34 1020.2
20260508161558 63 101 5.0 10.0 0.00 0.00 0.00 35 1020.1
20260508160108 64 116 5.0 9.0 0.00 0.00 0.00 35 1020.1
20260508154815 63 105 3.0 8.0 0.00 0.00 0.00 36 1020.1
20260508153123 64 120 5.0 10.0 0.00 0.00 0.00 35 1020.1
20260508151839 64 116 4.0 8.0 0.00 0.00 0.00 36 1020.2
20260508151621 64 116 4.0 8.0 0.00 0.00 0.00 36 1020.2
20260508150145 64 145 3.0 9.0 0.00 0.00 0.00 35 1020.3
20260508144611 64 126 4.0 9.0 0.00 0.00 0.00 35 1020.3
20260508143125 64 126 4.0 10.0 0.00 0.00 0.00 35 1020.3
20260508141555 64 135 3.0 7.0 0.00 0.00 0.00 36 1020.2
20260508140107 65 164 4.0 9.0 0.00 0.00 0.00 34 1020.3
20260508134614 66 139 4.0 9.0 0.00 0.00 0.00 34 1020.4
20260508133150 65 112 2.0 4.0 0.00 0.00 0.00 33 1020.4
20260508131555 66 93 2.0 8.0 0.00 0.00 0.00 33 1020.6
20260508130103 66 93 4.0 7.0 0.00 0.00 0.00 33 1020.3
20260508124608 67 98 6.0 9.0 0.00 0.00 0.00 32 1020.4
20260508123049 67 62 5.0 9.0 0.00 0.00 0.00 31 1020.3
20260508121551 68 93 7.0 10.0 0.00 0.00 0.00 31 1020.0
20260508120107 68 103 5.0 8.0 0.00 0.00 0.00 31 1019.9
20260508114551 68 106 6.0 9.0 0.00 0.00 0.00 30 1020.0
20260508113100 69 99 6.0 9.0 0.00 0.00 0.00 29 1019.8
20260508111650 69 105 4.0 7.0 0.00 0.00 0.00 29 1019.8
20260508110118 70 104 2.0 9.0 0.00 0.00 0.00 29 1019.8
20260508104709 71 109 3.0 11.0 0.00 0.00 0.00 27 1019.6
20260508103050 72 87 5.0 12.0 0.00 0.00 0.00 27 1019.3
20260508101553 72 137 8.0 11.0 0.00 0.00 0.00 26 1019.1
20260508100051 73 168 6.0 13.0 0.00 0.00 0.00 26 1019.1
20260508094554 74 99 9.0 14.0 0.00 0.00 0.00 25 1018.8
20260508093056 74 116 7.0 14.0 0.00 0.00 0.00 25 1018.9
20260508091550 75 92 10.0 17.0 0.00 0.00 0.00 25 1018.9
20260508090108 76 92 12.0 18.0 0.00 0.00 0.00 24 1018.4
20260508084552 77 90 12.0 18.0 0.00 0.00 0.00 23 1018.3
20260508083049 77 119 9.0 17.0 0.00 0.00 0.00 23 1018.3
20260508081553 77 120 12.0 20.0 0.00 0.00 0.00 23 1018.3
20260508080051 78 83 13.0 21.0 0.00 0.00 0.00 22 1018.1
20260508074554 79 93 10.0 18.0 0.00 0.00 0.00 23 1018.1
20260508073102 79 126 11.0 20.0 0.00 0.00 0.00 22 1018.0
20260508071547 80 120 11.0 17.0 0.00 0.00 0.00 22 1017.8
20260508070056 79 107 14.0 22.0 0.00 0.00 0.00 23 1017.8
20260508064553 80 93 9.0 22.0 0.00 0.00 0.00 23 1017.9
20260508063054 80 70 9.0 24.0 0.00 0.00 0.00 23 1018.0
20260508061551 79 105 9.0 24.0 0.00 0.00 0.00 23 1018.0
20260508060051 80 90 13.0 23.0 0.00 0.00 0.00 23 1018.4
20260508054625 79 118 14.0 20.0 0.00 0.00 0.00 23 1018.5
20260508053249 79 35 15.0 23.0 0.00 0.00 0.00 22 1018.5
20260508052111 80 93 9.0 27.0 0.00 0.00 0.00 23 1018.7
20260508050054 79 47 12.0 22.0 0.00 0.00 0.00 25 1019.1
20260508044557 79 71 10.0 23.0 0.00 0.00 0.00 25 1019.4
20260508043049 79 114 11.0 21.0 0.00 0.00 0.00 25 1019.8
20260508041630 78 101 14.0 24.0 0.00 0.00 0.00 26 1020.1
20260508040057 78 74 11.0 25.0 0.00 0.00 0.00 26 1020.4
20260508034600 77 70 15.0 24.0 0.00 0.00 0.00 27 1020.5
20260508033048 77 88 13.0 26.0 0.00 0.00 0.00 27 1020.8
20260508031558 76 79 16.0 26.0 0.00 0.00 0.00 28 1021.2
20260508030110 76 106 16.0 24.0 0.00 0.00 0.00 28 1021.5
20260508024547 75 56 17.0 27.0 0.00 0.00 0.00 29 1021.7
20260508023048 75 90 15.0 28.0 0.00 0.00 0.00 29 1021.8
20260508021549 74 91 15.0 27.0 0.00 0.00 0.00 30 1022.1
20260508020049 74 109 17.0 24.0 0.00 0.00 0.00 30 1022.4
20260508014549 73 90 13.0 27.0 0.00 0.00 0.00 32 1022.7
20260508013049 72 89 13.0 23.0 0.00 0.00 0.00 32 1022.8
20260508011555 72 91 13.0 27.0 0.00 0.00 0.00 32 1023.0
20260508010050 70 103 15.0 24.0 0.00 0.00 0.00 34 1023.0
20260508004650 69 63 15.0 23.0 0.00 0.00 0.00 35 1022.9
20260508003246 69 98 15.0 23.0 0.00 0.00 0.00 35 1022.8